Location: Forli
(44.2227°N, 12.0407°E)
Time: 00:36:50
(UTC+02:00)

PCSat - Pass Details

Date: 22 April 2026
Orbit: 781 x 790 km, 67.1° (Epoch: 19 May)

Event Time Altitude Azimuth Distance (km) Brightness Sun altitude
Rises 22:39:24 0° 331° (NNW) 3,294 14.1 -23.8°
Reaches altitude 10° 22:41:54 10° 337° (NNW) 2,361 13.0 -24.1°
Maximum altitude 22:47:11 52° 53° (NE) 982 9.9 -24.7°
Enters shadow 22:47:47 49° 77° (ENE) 1,011 9.9 -24.8°
